Regional Weather Roundup
Issued by NWS

Home | Current Version | Previous Version | Text Only | Print | Product List | Glossary On
Versions: 1 2 3 4 5 6 7 8 9 10 11 12 13 14 15 16 17 18 19 20 21 22 23 24 25 26 27 28 29 30 31 32 33 34 35 36 37 38 39 40 41 42 43 44 45 46 47 48 49 50
000
ASUS42 KTBW 261117
RWRFL
FLORIDA REGIONAL WEATHER ROUNDUP
NATIONAL WEATHER SERVICE TAMPA BAY RUSKIN FL
700 AM EDT THU MAY 26 2016

NOTE: "FAIR" INDICATES FEW OR NO CLOUDS BELOW 12,000 FEET WITH NO
SIGNIFICANT WEATHER AND/OR OBSTRUCTIONS TO VISIBILITY.

FLZ001>010-012>015-112-114-115-261200-
PANHANDLE FLORIDA

CITY           SKY/WX    TMP DP  RH WIND       PRES   REMARKS
PENSACOLA      MOCLDY    74  69  85 SE5       30.12R
PENSACOLA NAS  MOCLDY    75  69  81 SE6       30.12
MILTON NAS     CLOUDY    67  67 100 CALM      30.13
CRESTVIEW      FOG       67  67 100 CALM      30.15R VSB 1/4
DUKE FIELD     FOG       66  65  98 N2        30.13R VSB 1/4
VALPARAISO     MOCLDY    73  69  87 NE3       30.12R
MARY ESTHER    MOCLDY    75  69  81 SE5       30.11R
PANAMA CITY    FOG       68  68 100 NE6       30.14R VSB<1/4
TYNDALL AFB    MOCLDY    71  70  98 E3        30.14R FOG
APALACHICOLA   PTCLDY    70  70 100 CALM      30.13R

STATION/POSITION SKY/WX   TEMP    WIND        PRES    WAVE   SWELL
                          AIR SEA DIR/SP/G            HT/PER HT/PER
                          (F)     (DEG/KT/KT) (MB)    (FT/S) (FT/S)
30.1N   87.6W              77 80  130/  8/  8 1018.9R   1/ 6   2/ 6
29.2N   88.2W              77 78  140/ 10/ 10 1018.3R
28.8N   86.0W              78 80  120/ 12/ 16 1019.7R   2/ 5
PANAMA CITY BEAC           76 78  150/  5/  6 1020.1R
TOWER C                    77     160/ 14/ 15 1021.2R
28.5N   84.5W              78 78  140/ 16/ 19 1019.5S   3/ 4

$$
FLZ011-016>038-118-127-128-134-139-239-261200-
NORTH FLORIDA

CITY           SKY/WX    TMP DP  RH WIND       PRES   REMARKS
MARIANNA       PTCLDY    67  66  97 CALM      30.15R
TALLAHASSEE    PTCLDY    69  62  78 E6        30.16R
PERRY          CLEAR     65  60  81 E6        30.17R
LIVE OAK         N/A     63  63 100 CALM      30.19S
CROSS CITY       N/A     61  57  87 CALM      30.16R
LAKE CITY      FAIR      61  61 100 CALM      30.18R
GAINESVILLE    CLEAR     60  59  96 NW3       30.17R
WILLISTON      FAIR      64  61  88 CALM      30.18R
PALATKA        FAIR      59  59 100 CALM      30.16S
MAYPORT NAS    PTCLDY    74  62  66 SE10      30.16S
JACKSONVILLE   PTCLDY    63  63 100 NW3       30.16S
JAX NAS        PTCLDY    74  64  71 E8        30.16F
JAX CECIL      CLEAR     64  63  94 CALM      30.17S
FERNANDINA BEA FAIR      77  61  57 E7        30.16S
ST AUGUSTINE   CLEAR     73  64  73 SE8       30.17S
PALM COAST     CLEAR     63  63 100 CALM      30.16S

STATION/POSITION SKY/WX   TEMP    WIND        PRES    WAVE   SWELL
                          AIR SEA DIR/SP/G            HT/PER HT/PER
                          (F)     (DEG/KT/KT) (MB)    (FT/S) (FT/S)
SHELL POINT                79     150/ 16/ 19 1019.1
KEATON BEACH               66      90/  6/  8 1021.0R
CEDAR KEY                  75     140/ 12/ 14 1021.7R
FERNANDINA                 74 80  120/  2/  3 1021.5R
30.7N   81.3W                 78                N/A     2/ 8
MAYPORT                    76 79  110/  3/  8 1021.6R
31.4N   80.9W              77 76  140/  8/ 10 1022.3R   2/ 8   2/ 8
ST AUGUSTINE               76 78  110/ 11/ 13 1022.3S

$$
FLZ040-043>046-052-053-057-058-063-144-261200-
INTERIOR CENTRAL FLORIDA

CITY           SKY/WX    TMP DP  RH WIND       PRES   REMARKS
OCALA          CLEAR     61  55  82 CALM      30.16R
THE VILLAGES     N/A     66  63  88 MISG      30.05S
LEESBURG       CLEAR     71  60  68 E9        30.15F
SANFORD        CLEAR     67  60  78 CALM      30.15F
ORLANDO EXEC   CLEAR     68  61  78 CALM      30.15F
ORLANDO INTL   PTCLDY    68  60  75 NE3       30.15F
KISSIMMEE      CLEAR     66  63  88 CALM      30.15
WINTER HAVEN   CLEAR     68  61  78 MISG      30.15F
LAKELAND       CLEAR     64  61  88 E6        30.14F
BARTOW         FAIR      61  61 100 CALM      30.15S
OKEECHOBEE     PTCLDY    59  59 100 CALM      30.14S

$$
FLZ041-047-054-059-064-141-147-261200-
EAST CENTRAL FLORIDA

CITY           SKY/WX    TMP DP  RH WIND       PRES   REMARKS
ORMOND BEACH   CLEAR     63  59  88 CALM      30.16
DAYTONA BEACH  PTCLDY    65  63  93 W3        30.17R
DELAND           N/A     63  59  88 CALM      30.17S
JFK SPACE CTR  CLEAR     63  59  86 E3        30.14R
TITUSVILLE     CLEAR     72  64  78 E6        30.15
CAPE CANAVERAL PTCLDY    65  59  82 E3        30.13S
PATRICK AFB    CLEAR     75  61  62 E8        30.14R
MELBOURNE      PTCLDY    74  61  63 E8        30.14R
VERO BEACH     PTCLDY    69  63  81 NW3       30.14R
FT PIERCE      CLEAR     65  62  90 CALM      30.13R
STUART         PTCLDY    75  63  64 VRB5      30.14S

STATION/POSITION SKY/WX   TEMP    WIND        PRES    WAVE   SWELL
                          AIR SEA DIR/SP/G            HT/PER HT/PER
                          (F)     (DEG/KT/KT) (MB)    (FT/S) (FT/S)
28.5N   80.2W              76 80   70/  8/ 12 1020.7F
28.9N   78.5W              76 77   70/  8/ 12 1020.6R
TRIDENT PIER               69 80   20/  3/  4 1020.6F
28.4N   80.5W                 80                N/A     2/ 4
27.5N   80.2W                 80                N/A     3/ 8

$$
FLZ050-056-061-142-242-148-248-149-249-151-251-155-255-
160-260-261200-
WEST CENTRAL FLORIDA

CITY           SKY/WX    TMP DP  RH WIND       PRES   REMARKS
CRYSTAL RIVER  FAIR      61  59  94 CALM      30.16R
INVERNESS      FAIR      63  63 100 CALM      30.16R
BROOKSVILLE    CLEAR     59  57  93 CALM      30.16R
ZEPHYRHILLS    FAIR      61  56  85 CALM      30.15R
CLEARWATER AIR FAIR      72  61  68 SE7       30.14R
ST PETE CLEARW   N/A     71  61  70 S3        30.15R
TAMPA INTL     PTCLDY    71  61  70 CALM      30.15R
TAMPA EXEC     CLEAR     64  61  88 CALM      30.14R
PLANT CITY     CLEAR     66  64  94 CALM      30.15S
MACDILL AFB    CLEAR     67  64  90 E7        30.14R
PETER O KNIGHT CLEAR     70  64  83 CALM      30.15R
ST PETERSBURG  CLEAR     74  62  66 SE9       30.13R
SARASOTA       CLEAR     68  59  73 E3        30.12R
VENICE         NOT AVBL

STATION/POSITION SKY/WX   TEMP    WIND        PRES    WAVE   SWELL
                          AIR SEA DIR/SP/G            HT/PER HT/PER
                          (F)     (DEG/KT/KT) (MB)    (FT/S) (FT/S)
27.3N   84.2W                 81                N/A     4/ 6
CLEARWATER BEACH           74 82  110/ 10/ 12 1020.3R
MIDDLE TAMPA BAY           71     110/ 11/ 14 1020.2F
VENICE                     68 81   60/  4/  6 1019.9R

$$
FLZ066-069-070-075>078-162-262-165-265-261200-
SOUTHWEST FLORIDA AND KEYS

CITY           SKY/WX    TMP DP  RH WIND       PRES   REMARKS
PUNTA GORDA    CLEAR     61  59  93 E7        30.13F
FT MYERS       CLEAR     67  61  81 E7        30.10F
SOUTHWEST INTL CLEAR     65  60  84 E7        30.11F
NAPLES         CLEAR     68  61  78 NE8       30.10F
MARCO ISLAND   CLEAR     66  57  72 NE8       30.10F
MARATHON       CLEAR     78  64  61 NE9       30.07F
KEY WEST NAS   PTCLDY    77  68  73 E12       30.07F
KEY WEST INTL  CLEAR     77  68  73 E8        30.07F

STATION/POSITION SKY/WX   TEMP    WIND        PRES    WAVE   SWELL
                          AIR SEA DIR/SP/G            HT/PER HT/PER
                          (F)     (DEG/KT/KT) (MB)    (FT/S) (FT/S)
NAPLES                        83              1019.5F
26.0N   85.6W              80 81   70/ 16/ 17 1018.9R   3/ 6
DRY TORTUGAS               79      80/ 18/ 20 1017.8R
SAND KEY                   79      90/ 17/ 20 1018.5F
LONG KEY                   78 82   40/ 13/ 15 1019.0R
MOLASSES REEF              79 81   40/ 10/ 11 1018.9

$$
FLZ067-068-071>074-168-172>174-261200-
SOUTHEAST FLORIDA

CITY           SKY/WX    TMP DP  RH WIND       PRES   REMARKS
W PALM BEACH   PTCLDY    68  59  73 NW8       30.12R
FT LAUDER-EXEC PTCLDY    71  60  68 NW5       30.10S
FT LAUDERDALE  MOCLDY    75  59  57 N5        30.10R
POMPANO BEACH  PTCLDY    71  60  68 NW7       30.11R
PEMBROKE PINES CLEAR     71  64  78 NW6       30.12R
OPA LOCKA      PTCLDY    72  65  78 NW6       30.11R
MIAMI          PTCLDY    73  62  68 NW5       30.10S
WEST KENDALL   CLEAR     69  65  86 N7        30.10R
HOMESTEAD      CLEAR     71  61  72 N8        30.09R

STATION/POSITION SKY/WX   TEMP    WIND        PRES    WAVE   SWELL
                          AIR SEA DIR/SP/G            HT/PER HT/PER
                          (F)     (DEG/KT/KT) (MB)    (FT/S) (FT/S)
PORT EVERGLADES            78      50/ 10/ 13 1019.2R
VIRGINIA KEY               78 82   80/  8/ 12 1019.2S
LAKE WORTH                 78 80   30/ 10/ 12 1019.2S
FOWEY ROCKS                78 82   60/ 14/ 17 1019.5R
SETTLEMENT POINT           77      70/ 12/ 14 1020.3R

$$




USA.gov is the U.S. government's official web portal to all federal, state and local government web resources and services.